Location: York
(31.8935°S, 116.7682°E)
Time: 08:18:16
(UTC+08:00)

N. Korean satellite - Pass Details

Date: 24 May 2021
Orbit: 450 x 500 km, 97.2° (Epoch: 13 June)

Event Time Altitude Azimuth Distance (km) Brightness Sun altitude
Rises 17:49:51 0° 178° (S) 2,628 10.1 -6.8°
Reaches altitude 10° 17:52:02 10° 184° (S) 1,732 9.2 -7.3°
Maximum altitude 17:55:34 41° 255° (WSW) 737 8.0 -8.0°
Drops below altitude 10° 17:59:01 10° 326° (NW) 1,691 10.2 -8.7°
Sets 18:01:08 0° 333° (NNW) 2,557 11.0 -9.1°
